FW3843 Weather Reports


time (UTC)temp
F
wind
direction
speed
knots
gust
knots
rain 1hr
in
rain 24hr
in
rain mn
in
humidity
%
barometer
mb
20260508064850 51 306 0.0 0.0 0.00 0.00 0.00 97 1013.2
20260508063845 51 305 0.0 0.0 0.00 0.00 0.00 97 1013.2
20260508062845 51 301 0.0 0.0 0.00 0.00 0.00 97 1012.9
20260508061845 51 293 0.0 0.0 0.00 0.00 0.00 97 1013.0
20260508060845 51 305 0.0 0.0 0.00 0.00 0.00 97 1013.0
20260508055843 51 318 0.0 0.9 0.00 0.00 0.00 97 1013.0
20260508054843 51 307 0.0 0.0 0.00 0.00 0.00 97 1012.9
20260508053843 51 304 0.0 0.9 0.00 0.00 0.00 97 1012.8
20260508052844 51 313 0.0 0.0 0.00 0.00 0.00 97 1012.8
20260508051843 52 315 0.0 0.9 0.00 0.00 0.00 97 1012.6
20260508050840 52 310 0.0 0.0 0.00 0.00 0.00 97 1012.8
20260508045839 52 300 0.0 0.0 0.00 0.00 0.00 97 1013.0
20260508044834 52 312 0.0 0.0 0.00 0.00 0.00 97 1012.6
20260508043833 52 298 0.0 0.0 0.00 0.00 0.00 97 1012.6
20260508042832 52 291 0.9 2.6 0.00 0.00 0.00 97 1012.8
20260508041827 52 275 1.7 1.7 0.00 0.00 0.00 97 1012.4
20260508040826 52 320 1.7 1.7 0.00 0.00 0.00 97 1012.4
20260508035826 52 303 0.0 0.0 0.00 1.03 1.03 97 1012.2
20260508034826 53 310 0.0 0.0 0.00 1.03 1.03 97 1012.0
20260508033826 53 291 0.0 0.0 0.00 1.03 1.03 97 1011.8
20260508032821 53 305 0.0 0.0 0.00 1.03 1.03 97 1011.5
20260508031821 53 310 0.0 0.0 0.00 1.03 1.03 97 1011.8
20260508030820 53 303 0.0 0.0 0.00 1.03 1.03 97 1011.5
20260508025820 53 310 0.0 0.0 0.00 1.03 1.03 97 1011.5
20260508024820 53 302 0.0 0.0 0.00 1.03 1.03 97 1011.6
20260508023819 53 308 0.0 0.9 0.00 1.03 1.03 97 1011.6
20260508022818 53 300 1.7 2.6 0.00 1.03 1.03 97 1011.7
20260508021818 53 309 0.0 1.7 0.00 1.03 1.03 97 1011.4
20260508020816 53 310 0.0 0.0 0.00 1.03 1.03 97 1010.9
20260508015810 53 314 0.0 1.7 0.00 1.03 1.03 97 1011.2
20260508014810 53 297 0.0 0.0 0.00 1.03 1.03 97 1010.8
20260508013808 53 339 0.0 0.0 0.00 1.03 1.03 97 1010.4
20260508012803 53 319 0.0 0.0 0.00 1.03 1.03 97 1010.5
20260508011804 53 7 0.0 1.7 0.00 1.03 1.03 97 1010.6
20260508010803 53 314 0.0 0.9 0.12 1.03 1.03 97 1010.7
20260508005803 53 331 0.0 0.9 0.42 1.01 1.01 97 1010.5
20260508004802 53 5 0.0 1.7 0.38 0.93 0.93 96 1010.3
20260508003800 53 46 2.6 2.6 0.00 0.87 0.87 96 1009.9
20260508002800 53 72 2.6 5.2 0.00 0.87 0.87 96 1009.8
20260508001759 53 329 0.9 1.7 0.00 0.87 0.87 96 1009.7
20260508000757 53 50 2.6 4.3 0.00 0.87 0.87 96 1009.4
20260507235757 53 47 2.6 5.2 0.00 0.87 0.87 97 1009.3
20260507234751 53 347 2.6 6.1 0.00 0.87 0.87 97 1009.4
20260507233749 53 355 0.9 2.6 0.00 0.87 0.87 97 1009.5
20260507232745 53 21 0.9 1.7 0.00 0.87 0.87 97 1009.5
20260507231743 53 29 0.0 2.6 0.00 0.87 0.87 97 1009.1
20260507230743 53 301 0.9 2.6 0.00 0.87 0.87 97 1009.4
20260507225740 53 334 0.9 4.3 0.00 0.87 0.87 97 1008.7
20260507224738 53 355 1.7 2.6 0.00 0.87 0.87 97 1009.0
20260507223737 53 24 0.9 2.6 0.00 0.87 0.87 97 1009.0
20260507222736 53 16 3.5 5.2 0.00 0.87 0.87 97 1008.8
20260507221736 53 14 3.5 5.2 0.00 0.87 0.87 97 1008.9
20260507220734 53 326 6.1 9.6 0.00 0.87 0.87 97 1008.8
20260507215734 53 61 2.6 5.2 0.00 0.87 0.87 97 1008.7
20260507214735 54 23 1.7 5.2 0.00 0.87 0.87 97 1008.5
20260507213733 54 344 3.5 11.3 0.00 0.87 0.87 97 1008.3
20260507212732 55 48 0.9 6.1 0.00 0.87 0.87 97 1008.0
20260507211731 55 17 1.7 4.3 0.00 0.87 0.87 97 1008.2
20260507210730 55 46 1.7 11.3 0.00 0.87 0.87 97 1007.7
20260507205729 56 43 1.7 7.8 0.00 0.87 0.87 97 1007.8
20260507204728 56 325 2.6 5.2 0.00 0.87 0.87 97 1007.3
20260507203724 56 8 3.5 7.0 0.00 0.87 0.87 97 1007.3
20260507202723 57 358 4.3 7.0 0.00 0.87 0.87 97 1007.3
20260507201720 57 16 3.5 7.8 0.00 0.87 0.87 97 1007.4
20260507200719 59 286 0.9 7.0 0.00 0.87 0.87 97 1007.2
20260507195718 60 314 4.3 8.7 0.00 0.87 0.87 97 1007.1
20260507194718 60 306 2.6 11.3 0.00 0.87 0.87 97 1007.0
20260507193717 61 24 1.7 5.2 0.00 0.87 0.87 97 1006.9
20260507192716 62 19 1.7 4.3 0.00 0.87 0.87 97 1006.4
20260507191714 62 330 5.2 7.0 0.05 0.87 0.87 97 1006.4
20260507190714 62 340 4.3 7.8 0.00 0.86 0.86 97 1007.0
20260507185711 63 357 0.0 2.6 0.00 0.86 0.86 97 1006.8
20260507184711 64 298 0.0 2.6 0.00 0.86 0.86 97 1006.5
20260507183711 69 231 4.3 5.2 0.00 0.86 0.86 97 1006.5
20260507182711 68 280 6.1 11.3 0.00 0.86 0.86 97 1006.5
20260507181709 69 221 3.5 5.2 0.00 0.86 0.86 97 1006.6
20260507180709 69 207 4.3 5.2 0.00 0.86 0.86 97 1006.6
20260507175706 69 202 4.3 5.2 0.00 0.86 0.86 97 1006.3
20260507174701 69 204 4.3 7.0 0.00 0.86 0.86 97 1006.4
20260507173656 69 233 2.6 4.3 0.07 0.86 0.86 97 1006.8
20260507172655 68 228 1.7 4.3 0.00 0.85 0.85 97 1007.0
20260507171652 67 219 3.5 4.3 0.12 0.85 0.85 97 1007.3
20260507170652 67 230 4.3 7.0 0.05 0.83 0.83 97 1007.7
20260507165651 67 236 2.6 4.3 0.00 0.82 0.82 97 1007.7
20260507164649 68 262 2.6 2.6 0.00 0.82 0.82 97 1008.1
20260507163650 68 228 3.5 4.3 0.00 0.82 0.82 97 1007.9
20260507162649 68 189 3.5 5.2 0.05 0.81 0.81 97 1008.0
20260507161648 68 193 2.6 6.1 0.07 0.80 0.80 97 1007.9
20260507160647 68 200 5.2 7.0 0.00 0.79 0.79 97 1007.8
20260507155645 68 199 4.3 7.0 0.12 0.79 0.79 97 1007.9
20260507154644 68 212 3.5 4.3 0.12 0.77 0.77 97 1008.2
20260507153644 67 273 4.3 5.2 0.05 0.74 0.74 97 1008.4
20260507152642 67 244 4.3 6.1 0.05 0.72 0.72 97 1008.6
20260507151640 67 266 4.3 7.8 0.19 0.71 0.71 97 1008.8
20260507150639 67 253 4.3 7.8 0.26 0.67 0.67 97 1008.9
20260507145637 67 243 4.3 6.1 0.19 0.62 0.62 97 1008.9
20260507144637 67 253 4.3 8.7 0.12 0.59 0.59 97 1008.8
20260507143637 68 229 4.3 7.0 0.05 0.57 0.57 97 1008.7
20260507142636 68 232 4.3 7.0 0.00 0.56 0.56 97 1008.6
20260507141635 68 245 4.3 5.2 0.07 0.56 0.56 97 1008.6
20260507140634 68 256 3.5 5.2 0.00 0.55 0.55 97 1008.6
20260507135634 68 232 3.5 6.1 0.00 0.55 0.55 97 1008.8
20260507134633 68 237 2.6 4.3 0.00 0.55 0.55 97 1008.6
20260507133631 68 235 2.6 4.3 0.00 0.55 0.55 97 1008.7
20260507132631 68 212 5.2 6.1 0.00 0.55 0.55 97 1008.4
20260507131630 67 240 6.1 7.0 0.00 0.55 0.55 97 1008.5
20260507130630 67 244 1.7 5.2 0.00 0.55 0.55 97 1008.6
20260507125627 67 208 3.5 5.2 0.00 0.55 0.55 97 1008.7
20260507124625 67 226 6.1 7.0 0.00 0.55 0.55 97 1008.7
20260507123622 67 200 4.3 6.1 0.00 0.55 0.55 97 1008.9
20260507122619 67 214 4.3 8.7 0.00 0.55 0.55 97 1009.1
20260507121617 67 204 5.2 7.8 0.00 0.55 0.55 97 1009.3
20260507120615 67 190 5.2 7.0 0.00 0.55 0.55 97 1009.5
20260507115615 66 210 3.5 7.0 0.00 0.55 0.55 97 1009.7
20260507114612 66 208 2.6 4.3 0.00 0.55 0.55 97 1009.8
20260507113607 66 197 2.6 2.6 0.00 0.55 0.55 97 1009.7
20260507112602 66 219 2.6 2.6 0.05 0.55 0.55 97 1009.7
20260507111601 66 200 2.6 4.3 0.00 0.54 0.54 97 1009.6
20260507110600 66 214 3.5 5.2 0.07 0.53 0.53 97 1009.4
20260507105559 66 197 2.6 4.3 0.00 0.52 0.52 97 1009.6
20260507104559 66 210 3.5 4.3 0.05 0.52 0.52 97 1009.6
20260507103557 66 227 2.6 6.1 0.07 0.51 0.51 97 1009.8
20260507102556 66 231 0.9 2.6 0.05 0.50 0.50 97 1009.3
20260507101554 66 210 3.5 5.2 0.07 0.49 0.49 97 1009.2
20260507100554 66 228 4.3 5.2 0.05 0.48 0.48 97 1009.0
20260507095549 66 225 4.3 7.0 0.00 0.47 0.47 97 1009.1
20260507094548 66 217 4.3 7.0 0.00 0.47 0.47 97 1009.2
20260507093548 66 225 7.0 9.6 0.00 0.47 0.47 97 1009.1
20260507092543 66 180 7.8 9.6 0.24 0.47 0.47 97 1009.0
20260507091543 66 191 6.1 7.8 0.31 0.42 0.42 97 1009.4
20260507090540 66 182 4.3 7.8 0.19 0.36 0.36 97 1009.7
20260507085540 66 236 4.3 6.1 0.12 0.33 0.33 97 1010.2
20260507084539 66 208 5.2 6.1 0.05 0.31 0.31 97 1010.0
20260507083538 65 206 5.2 7.8 0.07 0.30 0.30 97 1009.6
20260507082537 65 184 4.3 6.1 0.00 0.29 0.29 97 1009.7
20260507081536 65 225 0.9 2.6 0.07 0.29 0.29 97 1009.8
20260507080535 65 222 1.7 1.7 0.00 0.28 0.28 97 1010.1
20260507075533 65 170 3.5 4.3 0.00 0.28 0.28 97 1009.8
20260507074532 65 203 0.0 0.0 0.00 0.28 0.28 97 1009.9
20260507073532 65 173 1.7 2.6 0.00 0.28 0.28 97 1010.2
20260507072532 65 180 0.0 0.0 0.00 0.28 0.28 97 1010.3
20260507071527 65 194 0.0 0.0 0.00 0.28 0.28 97 1010.2
20260507070526 66 267 0.0 0.0 0.00 0.28 0.28 97 1010.6
20260507065525 66 256 0.0 0.0 0.00 0.28 0.28 97 1010.6